Theta_e
309 310 311 309 308 308 308 308 308 307 308 307 307 308 312 318 320 319 319 319 320 320 321 322 322 322 323 323 323 323 325 326 326 326 326 327 327 327 327 327 326 326 325 325 324 323 324 323 324 324 323 324 323 323 323 322 322 323 324 325 325 325 324
311 309 309 308 307 308 307 308 308 308 308 307 307 306 307 312 317 319 319 319 319 319 319 320 320 320 320 321 321 321 323 324 324 324 325 325 326 326 325 325 325 325 325 324 324 324 324 323 323 323 323 323 322 321 322 321 321 320 320 321 322 323 324
311 309 309 308 308 308 308 309 308 308 308 308 307 307 306 307 310 315 317 316 313 311 310 311 311 310 310 314 317 319 322 322 322 322 322 322 323 322 322 323 324 324 324 325 324 324 323 323 323 322 321 319 317 318 320 322 321 318 316 316 318 319 321
310 309 309 309 308 308 308 309 308 308 309 308 307 307 307 306 306 308 310 309 307 306 305 306 306 304 305 307 308 310 315 317 319 320 317 317 321 321 320 321 322 322 323 323 324 323 322 322 321 321 320 318 316 316 318 320 318 315 315 316 315 314 316
310 308 309 309 309 309 308 308 309 309 308 308 308 308 307 307 306 306 306 306 306 306 306 306 306 306 306 306 305 305 307 310 314 314 310 310 316 320 320 320 321 321 321 322 322 322 321 321 321 320 320 318 314 314 317 317 315 314 315 316 316 315 314
310 309 309 310 309 309 309 309 309 310 309 308 308 308 308 307 307 307 306 306 306 306 306 306 306 307 306 306 307 306 306 307 308 308 306 305 309 313 315 316 317 316 317 317 316 315 315 316 316 314 313 312 311 311 315 316 314 314 315 315 317 318 316
311 310 310 309 309 309 309 310 310 310 310 309 309 308 309 308 307 308 307 306 306 306 306 307 307 307 307 307 307 307 306 306 306 306 306 306 306 307 308 309 309 308 309 309 308 307 307 307 307 307 307 309 310 310 312 314 314 314 316 317 319 320 321
312 312 311 310 309 310 310 311 312 312 311 311 310 309 309 309 308 308 308 307 307 306 306 307 307 307 306 307 306 306 306 306 307 306 306 306 306 306 306 306 306 305 305 304 304 305 304 304 304 304 305 307 309 310 312 314 314 314 315 316 319 321 322
314 314 315 312 311 313 313 313 314 315 314 312 312 310 309 309 309 308 308 308 308 308 307 306 307 307 306 306 306 306 306 306 306 306 306 306 306 305 305 305 305 304 304 304 304 303 303 303 303 303 303 303 305 307 309 312 313 314 314 314 316 318 319
315 316 318 315 314 317 318 316 316 317 315 314 314 313 311 310 309 310 309 309 308 308 308 307 307 307 307 306 307 306 306 306 305 306 305 305 305 305 305 304 304 304 304 304 304 304 303 303 303 303 303 303 304 304 304 305 307 310 311 311 313 315 316
316 317 320 319 317 319 320 319 318 317 315 314 313 313 312 312 311 311 310 310 310 309 309 308 308 308 307 307 307 306 306 306 305 306 305 305 305 305 304 304 304 304 304 304 304 303 303 303 303 303 303 304 304 304 304 303 304 305 306 306 308 311 313
317 316 319 320 319 319 320 320 319 317 315 315 313 312 313 314 314 313 312 311 311 311 310 309 309 308 308 308 308 307 307 306 306 306 305 305 305 305 305 304 304 304 304 304 304 304 304 303 304 304 304 304 305 304 304 304 304 304 304 304 305 306 307
320 317 318 319 320 319 319 319 319 319 318 317 316 315 314 315 315 316 316 314 313 313 312 312 311 310 309 309 309 308 308 307 307 307 306 306 306 306 305 305 305 305 305 305 305 306 305 305 305 306 306 306 306 306 306 305 305 304 304 304 304 304 304
322 320 319 320 320 320 320 320 319 319 319 319 318 317 317 316 317 317 317 317 316 315 315 314 313 312 311 310 309 309 309 308 308 308 307 307 307 307 306 306 306 306 306 306 306 306 306 306 306 307 307 307 307 308 307 306 305 305 305 304 304 303 303
323 322 322 321 322 321 321 321 320 319 319 318 318 318 318 318 317 317 317 317 318 318 318 317 316 315 314 313 311 310 310 309 309 309 308 308 308 307 307 307 307 306 306 306 306 306 306 306 306 306 306 306 306 307 307 306 306 306 306 305 305 304 303
324 323 322 322 322 321 321 320 319 319 318 317 317 317 317 317 317 318 318 318 318 319 319 318 318 317 317 316 315 313 312 311 311 310 309 309 309 308 307 308 308 307 307 306 306 306 306 306 306 305 305 304 304 305 304 304 305 305 305 306 305 303 301
324 324 322 321 320 319 318 318 318 318 318 317 316 316 316 316 316 317 318 319 319 319 319 319 319 319 318 318 317 316 315 314 313 312 311 310 310 309 308 308 308 307 307 307 306 306 306 306 305 305 304 304 303 303 303 303 304 304 304 305 305 303 301
323 323 322 322 321 319 317 317 317 318 318 318 317 317 317 317 317 318 318 319 319 319 319 320 320 319 319 319 319 318 317 317 315 314 313 312 311 310 309 309 308 308 307 307 306 306 306 305 305 304 304 304 303 303 303 302 302 302 301 302 303 303 302
321 321 321 322 321 319 319 319 319 319 318 318 317 317 317 317 318 319 319 319 319 319 320 319 319 320 320 319 319 319 318 318 317 316 315 313 312 311 310 310 309 308 307 307 306 306 306 305 304 304 304 304 304 304 304 302 301 301 300 300 300 301 301
321 321 321 321 320 320 320 320 319 319 318 318 317 316 315 316 318 318 318 317 318 319 320 320 320 319 319 319 318 319 318 318 317 317 316 315 313 312 311 311 310 309 308 307 307 307 306 305 304 304 304 304 304 304 304 303 303 301 300 300 299 299 299
321 322 322 321 320 320 320 319 319 319 318 318 317 316 316 315 316 316 315 315 316 318 319 319 319 320 319 318 318 318 318 318 317 317 316 315 314 313 312 311 311 310 310 309 308 308 307 306 305 304 304 304 303 303 303 303 303 302 300 300 299 298 298
315 316 317 317 317 318 318 318 318 318 318 318 317 317 318 317 317 317 317 317 317 318 318 318 318 318 319 319 318 318 318 318 317 316 316 316 314 313 313 312 312 312 311 309 308 308 308 307 306 304 303 303 303 302 303 303 302 301 300 299 299 298 298
310 310 311 312 313 315 314 315 316 316 315 315 314 315 316 317 318 319 319 319 319 319 319 318 318 318 318 319 319 319 319 318 317 317 316 316 314 314 314 313 313 312 311 310 309 308 308 307 305 304 303 302 302 302 302 302 300 299 299 298 298 298 298
310 310 311 312 312 312 312 313 314 315 315 315 315 315 316 316 317 317 317 318 319 320 320 320 319 318 318 318 319 319 319 319 318 317 316 315 315 315 314 314 313 312 311 310 309 308 307 307 305 304 303 302 302 302 301 300 300 299 298 297 297 297 297
308 309 310 311 310 311 312 313 313 313 314 313 314 315 316 317 317 317 316 315 315 316 317 318 319 320 320 320 319 320 319 318 318 317 317 316 315 315 314 313 312 312 311 310 309 308 307 305 304 303 302 302 302 301 300 299 298 297 296 296 296 296 296
307 308 308 308 308 309 310 310 310 310 311 311 311 313 315 316 317 318 317 316 314 312 311 313 316 318 319 320 320 320 319 318 318 318 317 316 315 314 314 313 312 311 311 310 308 307 306 304 303 302 302 302 301 300 299 298 297 296 296 296 296 296 296
305 306 307 307 307 306 307 307 307 308 309 310 309 309 310 313 314 315 316 316 315 314 312 312 312 313 313 316 319 320 319 318 318 318 316 315 314 314 313 312 311 311 310 308 307 306 304 303 302 301 301 301 300 299 298 297 297 296 296 295 296 296 296
306 305 305 305 304 304 304 304 305 306 307 307 307 306 307 309 311 313 314 314 315 315 313 311 311 311 311 314 318 319 319 318 317 316 315 314 314 314 313 312 311 310 308 307 305 304 302 301 301 301 301 300 299 298 297 297 297 296 296 296 296 296 296
307 307 305 304 303 303 303 303 303 304 304 304 304 305 306 308 309 310 312 312 313 314 314 312 311 311 312 315 317 318 318 317 315 314 314 313 313 313 312 311 310 308 307 305 304 303 302 301 301 301 301 300 299 298 297 297 296 296 296 296 296 296 296
308 308 306 305 304 303 303 303 303 303 302 301 301 301 303 307 309 310 311 311 312 312 313 313 313 313 314 315 316 317 318 317 315 313 312 312 312 311 310 310 309 307 306 305 304 304 303 302 301 300 299 298 298 297 297 296 296 296 296 296 296 296 295
307 307 307 306 306 305 304 303 303 303 302 301 300 300 302 305 309 310 311 311 311 312 313 314 314 314 314 315 316 317 317 316 314 311 311 311 310 309 309 309 308 307 306 305 305 304 303 302 300 299 298 297 297 297 297 296 296 296 296 296 296 295 295
306 307 307 306 306 305 304 303 303 304 303 301 300 301 303 305 308 309 310 311 311 312 313 313 313 314 313 314 316 315 315 314 313 311 310 310 308 308 308 308 307 306 305 304 303 302 301 300 299 297 297 297 297 297 296 296 296 296 295 295 295 295 295
306 305 305 305 305 305 305 305 305 305 304 302 302 304 305 306 308 309 310 311 311 312 312 313 313 313 312 313 315 314 313 313 312 311 310 310 308 308 308 307 306 305 303 302 302 301 300 298 297 297 297 297 297 296 296 295 295 295 294 294 294 294 294
305 305 305 305 306 306 306 306 306 306 304 303 303 305 307 307 308 309 310 311 311 311 312 312 312 312 312 312 313 314 313 312 311 310 310 310 309 308 306 305 304 303 303 302 301 299 297 296 296 297 296 296 296 295 295 294 294 294 294 294 294 294 293
306 305 305 305 305 306 306 307 306 306 305 303 304 306 308 308 309 309 309 310 310 311 311 311 311 312 311 311 311 312 312 311 311 310 309 308 307 306 304 303 302 302 302 300 297 295 295 296 296 296 295 295 294 294 294 294 294 294 293 293 293 292 292
305 305 305 305 305 305 305 306 305 305 305 305 306 308 308 309 310 310 311 311 311 311 311 311 311 311 310 310 309 310 310 310 309 308 307 305 303 302 302 303 302 301 298 296 294 294 295 295 295 294 294 294 294 294 294 293 293 293 292 292 292 292 292
304 304 305 304 304 304 304 304 304 305 306 307 308 309 309 310 310 310 311 311 311 311 310 310 310 310 309 308 307 307 308 308 307 306 304 303 302 303 303 302 300 297 295 294 294 294 294 294 294 294 294 294 294 293 293 292 292 292 292 292 291 291 291
Wind_Speed
15 14 14 13 12 11 12 12 13 13 13 13 12 11 12 16 13 12 12 11 10 8 7 7 7 6 4 4 5 5 6 6 6 6 6 6 7 8 8 9 8 6 5 6 4 4 3 2 1 2 3 4 4 4 4 4 5 6 7 7 8 9 9
14 14 14 14 12 11 12 13 12 12 13 13 14 13 11 12 13 12 11 10 9 7 7 7 6 5 4 4 3 2 5 7 8 9 8 6 5 6 7 7 8 7 5 5 4 4 3 3 2 2 2 1 2 3 3 3 3 4 6 8 9 9 9
16 15 15 14 13 11 12 12 11 12 12 13 14 13 13 12 11 11 10 8 7 9 8 7 7 7 7 7 7 6 7 7 8 9 9 9 7 7 8 7 8 9 7 5 5 5 5 5 4 3 2 2 3 4 3 2 3 5 5 5 8 11 11
17 16 16 14 13 12 12 12 12 13 12 12 13 13 13 13 12 10 8 7 9 12 13 11 10 9 8 8 7 7 8 8 8 7 7 8 9 9 9 7 7 8 8 7 6 6 5 5 5 5 4 2 1 2 5 5 4 5 7 5 4 5 8
17 17 15 14 14 13 12 12 13 13 12 11 11 12 12 12 12 12 11 11 11 12 12 11 11 11 10 10 9 8 7 7 6 5 4 7 10 10 9 8 7 7 7 7 6 6 6 5 6 6 7 7 6 4 3 4 3 5 8 6 5 6 5
16 17 15 14 13 12 11 12 13 12 12 12 11 11 11 11 11 12 11 11 11 11 11 10 11 11 11 10 10 9 9 7 6 5 5 6 7 9 9 8 7 6 7 7 6 7 7 8 8 7 8 9 8 6 4 3 1 5 9 6 3 4 5
15 16 15 14 13 12 10 11 11 12 12 11 11 11 11 10 10 10 10 10 10 10 10 9 10 11 10 9 9 9 9 8 8 7 7 6 5 4 4 4 4 4 4 3 3 3 3 4 5 4 4 6 5 4 6 6 4 6 13 13 8 4 4
14 15 14 12 12 11 10 9 9 9 10 10 10 10 10 10 10 9 9 8 8 8 7 7 8 9 9 8 8 8 8 8 7 7 7 6 6 5 5 4 5 5 5 4 3 3 3 3 1 1 0 1 2 3 6 7 5 4 9 12 12 11 11
15 15 13 12 11 10 9 8 7 6 6 7 8 8 9 9 9 9 8 7 7 6 6 5 5 6 7 6 7 7 7 7 7 6 6 6 5 5 6 6 6 5 5 6 5 5 5 5 4 3 3 3 2 1 2 3 5 3 3 5 8 10 11
16 15 13 12 11 10 9 8 7 5 2 3 4 4 5 7 7 8 7 7 6 5 5 4 3 4 5 4 5 5 6 7 7 7 6 6 5 5 5 5 6 6 5 5 5 5 5 4 4 4 4 4 3 3 2 1 2 4 3 2 1 2 4
17 16 12 11 11 11 10 9 8 6 4 2 0 1 2 3 5 5 5 5 5 5 5 4 3 4 4 3 3 4 4 5 6 6 6 6 5 5 5 5 5 6 6 5 4 4 4 4 4 4 4 4 4 3 3 3 3 4 4 4 5 6 5
15 16 14 11 10 10 11 10 8 7 6 5 3 2 2 3 3 4 4 4 4 3 4 3 3 4 4 3 3 3 3 4 4 4 4 5 4 4 4 5 5 5 5 5 4 5 5 5 5 5 6 5 5 4 4 5 6 5 5 5 6 7 10
12 14 15 13 11 11 11 11 9 8 7 6 6 5 4 4 4 5 5 5 4 4 5 4 4 3 4 4 3 2 2 2 2 2 2 3 3 2 3 3 3 4 4 4 5 5 5 5 5 6 5 5 5 5 6 7 8 8 7 8 8 7 9
13 14 15 14 14 14 14 13 11 9 8 7 7 7 6 6 6 7 7 8 7 7 7 7 6 6 6 6 5 4 3 3 2 2 0 0 0 1 1 1 2 2 2 2 3 4 3 3 4 4 4 4 4 4 5 7 10 10 9 9 10 10 10
18 18 18 17 17 17 16 14 12 12 11 10 9 8 8 8 8 9 9 10 10 10 10 9 8 8 8 8 8 8 7 6 6 6 4 3 3 3 3 2 1 0 0 1 2 2 2 2 2 2 2 2 2 3 5 7 9 11 12 12 12 13 13
22 22 22 21 20 19 17 16 14 13 13 12 11 11 11 11 11 12 12 12 12 12 11 10 10 10 10 10 10 11 11 9 9 9 8 7 6 6 6 6 5 4 3 3 3 3 3 1 1 0 1 2 3 4 5 7 9 12 14 15 15 15 15
22 21 21 21 21 20 19 18 17 15 14 14 14 14 14 13 13 13 14 13 13 12 12 12 12 12 12 12 12 12 13 13 12 12 11 10 10 10 9 8 8 7 6 6 6 6 5 5 4 4 3 4 5 5 6 7 9 11 14 16 16 16 16
20 20 20 20 21 20 19 19 19 18 17 16 16 16 15 15 15 16 15 14 13 12 12 13 14 15 16 15 15 14 14 13 13 14 14 13 12 13 12 10 10 10 9 8 8 8 8 7 7 7 7 7 7 8 8 8 9 11 13 16 17 17 17
19 19 20 21 20 19 18 18 18 18 18 18 18 18 17 17 17 16 15 15 15 14 14 15 17 19 19 18 18 17 17 15 13 14 16 15 14 14 14 13 12 13 12 11 10 10 10 9 8 8 9 10 10 11 11 11 12 13 14 15 17 17 18
16 16 17 17 17 16 16 17 17 17 18 19 20 20 19 19 20 19 18 18 18 18 17 18 20 22 22 21 20 20 20 19 17 16 16 16 16 16 16 15 15 15 14 14 13 12 11 11 11 11 12 13 13 13 13 14 14 15 16 17 17 18 18
12 11 11 10 10 10 12 13 14 15 17 18 19 18 18 19 20 21 21 21 20 21 21 22 23 24 25 24 22 22 22 22 22 20 19 18 18 18 17 17 17 16 16 15 14 13 13 13 13 13 14 15 15 15 16 16 16 17 17 19 19 19 19
8 7 6 4 4 4 5 5 7 9 11 13 14 13 13 14 17 19 20 20 20 21 24 25 27 28 28 26 25 25 24 23 24 24 22 21 20 20 19 18 18 18 16 15 14 14 14 14 14 14 15 16 17 17 17 17 17 18 19 20 21 21 21
6 6 5 5 4 4 3 2 3 4 6 7 7 7 8 9 12 14 16 17 17 19 22 24 26 28 28 26 26 27 27 26 25 26 25 24 23 22 21 20 19 19 17 15 15 15 16 15 15 15 16 17 18 18 18 18 18 19 20 21 22 22 23
5 5 6 6 4 3 3 3 4 4 4 4 5 6 6 7 8 10 11 12 14 16 18 21 23 24 24 25 26 28 29 29 29 28 28 27 26 24 22 21 20 19 18 17 17 17 16 16 16 16 18 19 19 19 19 19 20 21 22 23 23 24 25
6 6 6 6 6 6 6 7 6 6 5 5 6 7 7 8 9 10 10 11 13 15 16 17 19 20 22 23 26 28 30 31 31 30 30 29 28 25 23 21 20 18 18 19 19 18 18 17 17 17 18 19 20 20 20 21 22 23 24 24 25 25 25
7 7 7 7 8 8 9 9 8 7 7 8 8 9 8 9 10 11 13 13 14 15 15 15 16 18 20 21 24 27 29 30 31 31 31 31 29 25 22 21 19 19 19 20 20 19 19 19 19 19 19 20 20 21 22 23 24 25 25 25 26 27 26
8 9 9 8 8 8 8 8 8 8 9 10 11 12 11 11 12 13 15 16 16 17 16 15 15 16 18 20 21 24 27 29 30 30 31 30 27 24 22 20 19 20 21 20 19 19 20 21 21 21 21 22 22 22 23 24 24 25 25 25 27 28 26
7 8 8 7 7 6 5 5 5 7 7 8 9 10 11 12 13 14 15 16 17 17 16 15 15 16 17 18 19 21 23 26 27 28 30 28 24 23 22 20 20 20 20 19 18 19 20 20 21 21 22 22 23 24 26 26 26 26 26 27 28 28 28
7 7 7 7 6 5 5 4 4 6 6 7 8 9 10 11 12 14 15 15 16 16 16 15 16 17 18 19 19 19 21 24 26 28 28 25 23 23 22 21 21 20 19 18 19 20 21 20 20 20 22 23 25 26 27 27 27 27 28 29 30 30 30
8 8 9 9 8 7 7 8 8 9 9 9 9 9 10 11 13 14 15 15 16 17 17 17 17 18 18 19 20 18 20 24 27 26 24 23 23 23 22 21 21 20 19 20 22 22 22 21 21 22 24 25 27 27 27 28 28 29 31 32 33 33 33
9 9 10 10 10 10 11 12 12 11 11 10 10 10 10 12 14 15 15 16 16 18 18 18 18 18 17 19 19 19 21 25 27 25 23 23 23 22 21 21 21 21 21 22 23 22 22 22 24 25 26 27 28 28 29 30 32 33 34 35 36 36 37
11 11 12 13 14 15 15 15 14 13 12 12 12 12 12 14 16 17 17 17 17 18 19 19 19 19 18 18 18 19 22 25 25 24 23 22 21 20 21 21 21 21 21 21 20 21 22 24 25 26 27 28 29 31 31 33 35 36 37 38 39 38 38
15 15 16 16 16 16 16 15 15 14 15 14 13 13 15 16 17 18 18 18 18 19 20 20 20 20 18 16 16 19 22 24 24 24 23 22 20 21 22 22 21 20 20 19 20 23 24 26 26 26 28 29 31 33 34 35 37 38 38 38 37 36 34
17 17 16 16 15 15 15 16 16 17 17 17 16 17 18 19 20 20 20 19 19 19 19 19 18 18 16 14 15 17 20 23 24 24 24 22 22 21 22 21 20 21 21 21 23 25 26 26 26 27 29 31 32 33 34 35 35 34 33 31 30 29 29
18 17 17 17 17 17 17 18 19 20 20 19 18 19 20 20 21 21 22 21 20 19 18 16 15 14 13 13 14 16 19 23 24 23 22 21 21 21 22 22 21 21 23 24 26 26 26 26 27 28 29 29 30 30 29 29 28 27 26 25 25 25 25
18 18 18 18 19 20 21 21 22 22 21 19 18 20 20 20 21 20 20 20 19 17 16 15 14 13 12 12 14 16 19 22 23 23 22 20 19 19 20 21 22 23 24 25 24 24 24 25 26 26 26 25 25 24 24 23 22 22 22 23 23 24 24
19 20 21 21 22 22 22 23 23 22 19 17 18 20 20 20 20 19 18 18 17 16 15 14 13 13 13 12 13 16 19 22 23 23 21 20 19 20 21 22 23 23 22 21 21 21 22 22 21 21 21 21 21 21 21 21 21 21 21 22 23 23 23
Wind_Direction
145 140 134 124 122 121 112 101 88 86 86 88 94 102 129 147 145 132 131 134 139 136 134 138 131 125 124 113 100 96 114 130 138 151 173 188 187 188 193 196 192 180 177 185 195 204 205 208 214 268 288 287 289 277 264 268 260 251 252 248 242 240 237
147 141 136 131 128 123 108 98 89 87 85 85 88 85 100 136 154 148 143 147 147 149 167 175 159 161 191 195 184 156 126 123 122 125 134 142 152 162 160 165 172 164 162 179 183 182 180 172 148 105 58 33 20 2 344 337 333 310 289 274 264 258 248
156 146 140 137 129 118 107 104 101 94 90 88 88 87 87 101 130 146 150 151 140 131 141 159 164 168 181 183 183 176 157 141 136 134 132 133 137 145 147 151 161 164 169 184 183 173 173 176 169 145 125 110 75 57 54 55 39 21 352 310 280 265 257
157 152 147 142 132 125 119 112 106 99 95 92 91 94 92 91 100 113 118 111 106 108 112 118 123 124 130 138 145 156 162 157 152 147 142 144 143 143 150 153 156 160 165 171 173 174 178 181 182 187 197 198 146 106 98 87 60 24 8 3 342 290 261
160 155 150 144 135 130 123 113 109 105 102 100 98 96 97 98 99 99 97 93 91 94 96 97 99 98 97 99 102 117 136 147 152 152 153 162 163 163 165 165 164 164 162 166 176 192 204 208 211 224 239 249 250 226 146 95 58 6 346 336 349 342 305
165 155 151 147 138 132 124 114 110 107 104 102 98 97 97 99 102 103 101 98 95 93 90 88 89 89 86 84 88 93 98 106 110 104 105 128 154 170 177 179 182 184 184 193 208 219 224 231 238 245 250 254 260 245 198 168 150 37 26 15 355 327 311
170 159 155 150 141 138 128 115 110 105 101 98 95 96 96 98 101 102 103 102 101 99 97 95 95 94 89 85 86 87 89 94 93 92 94 96 109 134 157 163 155 146 158 186 214 222 214 225 240 245 237 235 249 235 184 166 160 82 65 67 76 102 114
173 166 162 156 148 142 131 119 113 103 97 96 94 90 90 94 96 96 100 102 102 101 100 97 95 95 92 90 90 91 93 94 96 101 104 108 112 112 109 110 110 107 100 96 88 78 86 97 102 51 36 218 224 207 181 171 173 120 80 85 98 111 116
176 174 170 161 152 142 132 125 123 112 95 93 92 85 82 83 84 87 92 95 98 101 101 98 96 95 96 95 93 93 95 97 100 100 102 108 112 111 113 117 121 114 100 98 94 80 78 78 78 77 64 66 69 88 182 197 202 188 90 95 115 116 114
179 178 172 161 155 150 142 138 144 150 139 91 81 72 68 66 68 75 80 85 86 86 90 95 92 90 96 99 94 94 96 99 101 98 97 98 96 94 99 105 110 108 100 99 96 87 86 86 85 85 83 84 74 53 38 345 262 248 283 329 288 159 134
182 178 171 159 158 162 159 158 165 175 194 207 239 17 25 24 32 44 52 63 68 65 67 71 60 57 71 81 82 85 85 86 91 97 100 98 95 92 91 90 90 91 89 86 89 91 91 86 75 67 64 64 62 49 27 5 347 297 277 288 295 284 268
182 176 175 169 167 172 174 177 183 190 204 219 239 274 317 332 341 351 356 9 23 23 25 33 32 29 34 46 58 65 72 75 81 94 96 94 92 87 86 93 94 91 89 85 87 94 99 95 81 72 66 56 49 41 20 360 354 341 308 287 285 283 276
174 167 175 178 179 182 182 184 188 193 207 224 240 259 283 298 305 314 316 319 327 334 336 335 337 343 347 355 9 21 35 50 58 75 88 90 95 89 82 93 96 83 77 75 73 77 94 105 95 85 78 63 47 33 19 358 345 349 346 323 312 308 290
176 172 180 184 183 183 183 183 183 184 197 221 242 260 281 290 290 295 297 297 301 307 312 311 309 309 309 313 317 314 312 320 328 333 15 86 32 61 102 119 104 82 62 49 48 49 60 77 75 68 62 55 37 8 353 339 329 336 348 340 330 331 325
186 185 186 185 185 188 192 193 194 194 197 212 235 251 267 280 284 288 293 295 296 299 302 301 300 301 301 300 299 297 292 287 294 299 289 279 295 298 282 281 298 158 319 354 8 10 18 47 56 43 29 20 356 312 303 309 317 326 338 342 337 336 335
195 195 194 193 195 201 207 212 216 214 211 217 230 239 251 263 273 281 286 289 290 294 296 295 296 298 299 297 293 291 290 285 282 286 288 283 284 288 280 281 294 299 297 304 305 311 319 339 353 288 324 333 310 296 301 312 321 325 330 335 335 333 331
197 200 205 208 210 214 220 225 228 229 233 237 238 242 251 259 263 268 276 281 282 284 285 284 286 289 292 292 287 284 286 285 279 278 282 282 281 284 279 274 282 290 292 295 296 304 311 314 319 323 324 323 316 313 312 312 312 313 317 323 327 326 323
204 208 217 221 222 225 231 233 233 236 243 245 238 235 239 249 256 259 266 271 270 273 276 273 273 275 277 278 276 274 275 277 276 274 276 278 278 280 281 279 280 284 290 295 297 301 306 309 315 319 318 316 312 311 310 306 304 303 305 311 318 321 319
217 221 223 224 226 231 235 234 235 239 244 247 246 243 239 241 245 247 252 257 258 259 261 260 262 264 265 266 267 267 267 267 267 269 271 273 273 273 276 278 277 282 290 294 295 300 305 307 307 304 304 306 307 309 310 310 309 308 306 308 312 315 317
220 225 224 225 228 231 231 232 236 240 242 247 254 257 253 246 243 247 255 258 253 248 247 251 256 258 260 261 261 263 265 264 262 261 264 266 265 264 266 269 271 276 284 288 293 300 304 303 300 299 299 300 302 305 308 311 312 312 310 310 310 311 313
211 217 222 227 231 232 232 235 240 244 248 254 261 265 264 257 253 255 261 261 251 242 240 246 252 256 258 259 260 261 261 262 262 259 258 259 258 256 257 261 266 271 277 283 290 294 296 295 295 296 297 298 300 303 306 309 312 312 310 309 310 310 309
177 184 190 195 201 208 218 229 238 250 257 261 266 268 264 259 255 254 258 261 256 248 244 246 250 253 256 257 260 260 258 257 259 257 255 254 252 252 255 260 266 270 274 279 283 285 287 288 290 292 294 296 298 301 305 308 310 310 308 308 309 309 307
146 143 140 143 156 172 179 197 224 247 259 264 272 274 264 257 255 254 256 259 259 255 252 253 254 255 256 255 257 259 257 256 256 254 253 251 248 251 257 263 268 272 275 277 277 279 282 285 288 292 293 295 297 300 302 305 306 307 308 308 308 309 309
139 134 139 147 161 178 192 217 232 241 261 278 288 291 286 278 272 269 265 263 264 264 262 262 261 261 261 259 257 258 257 256 257 254 251 250 249 252 256 260 265 270 275 279 278 277 279 284 289 294 295 297 298 299 301 303 307 310 310 309 309 310 310
148 155 173 179 183 186 198 218 232 238 253 272 282 284 284 283 282 283 279 271 267 267 266 266 265 265 265 263 260 259 258 257 256 253 249 248 249 251 253 257 262 268 277 281 280 280 282 286 290 293 295 297 299 301 304 308 312 313 312 310 309 309 310
169 176 194 200 202 206 213 223 230 233 241 251 259 264 268 272 275 277 277 274 269 266 264 264 266 266 266 266 264 262 260 257 255 251 246 244 245 247 251 255 260 270 277 278 278 281 285 290 294 295 295 296 298 301 304 308 310 310 309 310 309 310 311
187 192 200 208 219 225 225 226 225 228 234 241 247 252 255 259 264 267 270 272 272 272 269 264 264 266 267 267 266 263 261 258 253 245 240 239 241 246 252 256 264 273 275 273 275 281 287 292 294 294 295 295 297 299 301 303 304 303 304 305 306 307 309
208 213 218 225 234 235 231 235 237 240 246 250 255 258 256 254 256 260 265 269 270 273 272 267 263 264 266 269 269 265 261 255 246 237 235 237 240 246 252 257 264 268 267 267 274 282 285 287 287 289 290 291 293 295 297 299 301 301 303 304 304 305 305
226 236 248 254 257 259 266 278 275 272 276 275 271 271 268 263 261 258 261 267 270 272 272 269 265 265 267 270 270 266 260 252 243 235 234 235 239 244 249 253 258 258 256 261 271 277 279 280 281 283 283 284 287 290 292 296 299 301 302 303 302 303 302
230 241 256 267 274 277 283 288 286 284 289 292 290 285 277 271 270 267 263 264 266 268 270 271 271 272 272 269 268 266 259 250 241 234 231 234 238 242 246 250 252 251 254 263 271 275 278 282 283 283 283 284 287 289 293 297 298 299 299 299 299 299 298
241 242 250 260 267 271 276 281 282 282 286 293 297 293 281 270 268 269 267 263 263 265 267 268 270 272 273 270 267 264 256 246 239 235 234 235 236 238 243 247 250 254 263 270 274 276 280 283 284 284 286 288 290 292 295 297 297 297 296 296 295 295 294
237 240 247 254 261 268 273 275 276 278 284 293 295 287 276 267 263 264 265 262 261 263 265 265 266 269 271 269 264 258 250 243 238 237 236 235 234 238 246 252 255 260 265 267 269 273 277 280 282 284 287 288 290 293 295 296 296 296 296 295 296 295 294
245 251 257 262 266 269 271 273 275 277 283 291 290 277 269 265 262 263 265 263 260 260 262 263 265 268 270 267 260 254 247 242 239 237 235 237 241 248 252 253 254 256 256 258 264 270 274 277 280 283 285 287 290 293 294 295 295 296 297 297 298 298 298
255 259 262 264 266 265 264 265 268 274 281 286 280 270 266 265 263 264 265 265 262 260 260 262 265 267 267 260 253 251 248 243 240 238 239 244 250 253 250 247 248 252 257 262 267 270 273 276 279 282 285 288 291 293 294 295 296 297 298 299 301 302 304
258 259 259 260 259 258 258 260 263 269 276 278 273 267 265 265 264 264 264 264 264 264 264 265 265 263 262 255 249 249 249 244 240 239 240 243 244 243 242 245 250 256 262 267 270 272 275 279 283 287 290 292 293 294 296 297 299 301 303 306 309 311 314
262 262 260 260 259 259 260 262 265 268 272 272 266 263 263 263 262 263 263 263 265 266 265 266 263 260 257 251 247 249 248 243 239 238 237 235 232 233 240 249 257 262 267 271 274 278 282 286 290 293 295 297 299 301 304 306 308 311 313 314 315 316 320
264 263 262 262 262 263 264 264 265 267 267 262 258 259 261 261 261 263 265 266 267 266 264 262 257 252 248 246 250 254 250 242 238 237 235 234 236 242 250 258 264 269 273 277 281 284 288 292 296 300 303 306 309 311 313 313 313 314 315 317 319 321 321